Regional Weather Roundup
Issued by NWS

Home | Current Version | Previous Version | Graphics & Text | Print | Product List | Glossary On
Versions: 1 2 3 4 5 6 7 8 9 10 11 12 13 14 15 16 17 18 19 20 21 22 23 24 25 26 27 28 29 30 31 32 33 34 35 36 37 38 39 40 41 42 43 44 45 46 47 48 49 50
973
ASUS43 KMKX 270300
RWRWI

WISCONSIN REGIONAL WEATHER ROUNDUP
NATIONAL WEATHER SERVICE MILWAUKEE/SULLIVAN WI
1000 PM CDT FRI MAY 26 2017

NOTE: "FAIR" INDICATES FEW OR NO CLOUDS BELOW 12,000 FEET WITH NO
SIGNIFICANT WEATHER AND/OR OBSTRUCTIONS TO VISIBILITY.

WIZ001-002-006>008-014>016-023>028-270400-
NORTHWEST WISCONSIN

CITY           SKY/WX    TMP DP  RH WIND       PRES   REMARKS
SUPERIOR ARPT  NOT AVBL
ASHLAND        LGT RAIN  61  57  87 NW8       29.80R
HAYWARD        LGT RAIN  60  55  83 SE9       29.80F
SIREN          MOCLDY    61  60  96 CALM      29.78R
CUMBERLAND     CLOUDY    61  55  82 S5        29.79R
RICE LAKE      HVY RAIN  65  58  79 NW5       29.81R
CHETEK         CLOUDY    63  59  88 SE7       29.78R
LADYSMITH      PTCLDY    65  56  71 SE5       29.81R
EAU CLAIRE     NOT AVBL
MENOMONIE      CLEAR     65  56  71 SE3       29.79R
NEW RICHMOND   PTCLDY    65  52  61 W7        29.79R
OSCEOLA        CLEAR     66  48  52 W6        29.81R
$$

WIZ003>005-009-010-017-018-270400-
NORTH CENTRAL WISCONSIN

CITY           SKY/WX    TMP DP  RH WIND       PRES   REMARKS
MANITOWISH WTR CLOUDY    57  57 100 S3        29.82R
ARBOR VITAE    CLOUDY    57  55  92 CALM      29.83R
WOODRUFF       CLOUDY    57  55  92 CALM      29.83R
RHINELANDER    MOCLDY    56  54  93 CALM      29.85R FOG
EAGLE RIVER    MOCLDY    56  50  80 CALM      29.84R
LAND O LAKES   CLOUDY    58  55  89 SE3       29.85R
PHILLIPS       CLEAR     56  55  95 CALM      29.81R
TOMAHAWK       CLEAR     56  54  95 CALM      29.84R
MEDFORD        CLEAR     58  54  85 S6        29.83R
MERRILL        CLEAR     62  54  76 CALM      29.84R
$$

WIZ029-030-035-036-043>047-270400-
CENTRAL WISCONSIN

CITY           SKY/WX    TMP DP  RH WIND       PRES   REMARKS
WAUSAU         CLEAR     61  54  77 S3        29.83R
MOSINEE        NOT AVBL
MARSHFIELD     CLEAR     59  53  80 S6        29.84R
STEVENS POINT  CLEAR     59  52  76 CALM      29.85R
WAUPACA        CLEAR     62  54  75 S3        29.84R
WAUTOMA        CLEAR     59  55  87 SE5       29.86R
WISC RAPIDS    CLEAR     58  53  84 S5        29.86R
CAMP DOUGLAS   NOT AVBL
$$

WIZ011>013-019>022-031-037>040-048>050-270400-
NORTHEAST WISCONSIN

CITY           SKY/WX    TMP DP  RH WIND       PRES   REMARKS
ANTIGO         PTCLDY    59  56  89 S8        29.85R
SHAWANO        CLEAR     64  55  71 S3        29.84S
OCONTO         CLOUDY    60  55  83 CALM      29.85R
STURGEON BAY   CLOUDY    57  52  83 S5        29.87R
GREEN BAY      PTCLDY    61  58  90 S5        29.86R
MANITOWOC      NOT AVBL
APPLETON       PTCLDY    57  52  82 SE6       29.84R
CLINTONVILLE   CLEAR     59  54  82 S7        29.84R
OSHKOSH        MOCLDY    60  53  77 S6        29.86R
$$

WIZ032>034-041-042-053>061-270400-
SOUTHWEST WISCONSIN

CITY           SKY/WX    TMP DP  RH WIND       PRES   REMARKS
LA CROSSE      CLEAR     65  58  78 S7        29.82R
SPARTA         CLEAR     57  55  93 CALM      29.84R
VIROQUA        CLEAR     60  55  85 SW6       29.85R
BOSCOBEL       PTCLDY    58  56  93 CALM      29.85R
PRAIRIE DU CHI PTCLDY    60  56  88 E3        29.84R
PLATTEVILLE    CLEAR     60  57  91 SE6       29.86R
$$

WIZ056-057-062-063-064-067-068-270400-
SOUTH CENTRAL WISCONSIN

CITY           SKY/WX    TMP DP  RH WIND       PRES   REMARKS
REEDSBURG      CLEAR     58  56  92 CALM      29.85R
BARABOO/DELLS  CLEAR     56  52  87 SE6       29.85S
LONE ROCK      NOT AVBL
MINERAL POINT  CLEAR     59  57  94 SE5       29.86R
MADISON        PTCLDY    55  54  96 CALM      29.86R
MIDDLETON      CLEAR     56  56  99 CALM      29.86S
WATERTOWN      CLEAR     53  53 100 CALM      29.86S
MONROE         PTCLDY    55  52  88 E3        29.86R
JANESVILLE     MOCLDY    59  54  82 E3        29.86R
$$

WIZ051-052-058>065-066-070>072-270400-
SOUTHEAST WISCONSIN

CITY           SKY/WX    TMP DP  RH WIND       PRES   REMARKS
MILWAUKEE      CLOUDY    52  51  97 NE5       29.88R
WAUKESHA       NOT AVBL
MILWAUKEE/TIMM   N/A     54  50  87 CALM      29.88R
RACINE         CLOUDY    52  50  93 CALM      29.88R
KENOSHA        CLOUDY    54  52  93 NE3       29.87R
FOND DU LAC    CLEAR     59  52  77 S6        29.87R
SHEBOYGAN      CLOUDY    56  53  90 CALM      29.87R
WEST BEND      CLOUDY    54  54 100 CALM      29.88R
JUNEAU         PTCLDY    56  54  91 CALM      29.88R
$$

LSZ147-162-270400-
LAKE SUPERIOR

STATION/POSITION TIME  TEMP    WIND        PRES    WAVE
                       AIR SEA DIR/SP/G            HT/PER
                 (UTC) (F)     (DEG/KT/KT) (MB)    (FT/S)
W MID LAKE BUOY  0150   44 37  110/  8/  8 1007.9R   0
DEVILS ISLAND    0200   47      50/  7/  9 1007.7R
PORT WING        0240   44      30/  6/  7 1008.1R
SAXON HARBOR     0240   61     200/  2/  4 1007.8R
$$

LMZ867-665-643>646-270400-
LAKE MICHIGAN

STATION/POSITION TIME  TEMP    WIND        PRES    WAVE
                       AIR SEA DIR/SP/G            HT/PER
                 (UTC) (F)     (DEG/KT/KT) (MB)    (FT/S)
CHAMBERS ISLAND  0230   59      CALM  /  4 1010.5R
N MID LAKE BUOY  0150   45 42  200/  2/  4 1011.8F   0
NORTHPORT PIER   0240   54     200/  3/  4 1010.8R
KEWAUNEE LAKESHO 0230   52     120/  3/  4 1010.6R
SHEBOYGAN LAKESH 0200   54     180/  4/  4 1011.2R
PORT WASHINGTON  0240   54     260/  1/  4 1012.5R
ATWATER BUOY     0109   48     250/  4/  4 1011.2R
MILWAUKEE LAKESH 0230   49      40/  5/  5   N/A
S MID LAKE BUOY  0150   49 47   40/  4/  6 1011.5S   0
KENOSHA   LAKESH 0200   50        CALM     1011.2
$$

TC  - TEMPERATURE IN CELSIUS
VSB - VISIBILITY IN STATUTE MILES
WCI - WIND CHILL INDEX
HX  - HEAT INDEX





USA.gov is the U.S. government's official web portal to all federal, state and local government web resources and services.